Préparation du vol

Réserver un ULM chez EFU                     Découvrir nos appareils                     Coordonnées de l'école

Available data for LFPN from the past hour

METAR
LFPN 231800Z AUTO 24005KT 9999 BKN022 OVC028 12/11 Q1009 NOSIG
LFPN 231730Z AUTO 23006KT 9999 OVC023 12/11 Q1009 NOSIG
TAF
TAF LFPN 231700Z 2318/2403 20012KT 9999 BKN025 TEMPO 2320/2403 4000 -RA BKN012 BECMG 2322/2324 21015G25KT

Pour avoir des informations détaillée sur la météo à venir vous pouvez consulter Aeroweb

prevision des pluies

Nota : Heuro locale = heure CET

ATISATIS Étampes129.900
SOLÉtampes sol121.850
TWRÉtampes tour119.050
VDFÉtampes gonio119.050

OLIVIA

Outil en Ligne Intégré de Visualisation d'Informations Aéronautiques

OLIVIA